Terug naar catalogus

KUIPER-00154

ActiefCommunicatieLEO
NORAD 65969·PAYLOAD·🇺🇸 United States

Gelanceerd Oct 14, 2025 vanaf Cape Canaveral Space Force Station

Loading…

Volgende Passages (komende 24 uur)

TLE

VersSource: CelesTrak SupGP

Epoch: Sep 14, 2026, 14:04 UTC

1 65969C 25228Y   26257.58623843  .00001204  00000+0  15763-3 0  2573
2 65969  51.8988 220.3017 0000849  72.9742 196.3240 14.79920299    11

Volg KUIPER-00154 in realtime met AllMySat

Download on the App Store